Location: Nelson
(41.2830°S, 173.2830°E)
Time: 11:50:45
(UTC+12:00)

Meteor 2-13 Rocket - Visible Passes

Search period start: 24 April 2019 00:00
Search period end: 04 May 2019 00:00
Orbit: 937 x 957 km, 82.5° (Epoch: 23 April)

Date Brightness Start Highest point End Pass type
(mag) Time Alt. Az. Time Alt. Az. Time Alt. Az.
29 Apr 6.8 20:32:01 10° S 20:32:03 10° S 20:32:03 10° S visible
30 Apr 6.8 20:48:35 10° S 20:48:53 11° S 20:48:53 11° S visible
01 May 6.9 21:05:20 10° S 21:05:44 12° S 21:05:44 12° S visible
02 May 6.5 19:38:17 10° SSE 19:38:33 11° SSE 19:38:33 11° SSE visible
02 May 7.0 21:22:15 10° SSW 21:22:37 12° SSW 21:22:37 12° SSW visible
03 May 6.4 19:54:31 10° S 19:55:28 14° SSE 19:55:28 14° SSE visible
03 May 7.1 21:39:22 10° SSW 21:39:32 11° SSW 21:39:32 11° SSW visible
